COSMOS 985

导读

COSMOS 985是独联体(CIS)继承自苏联航天遗产的一颗卫星,于1978年1月17日08:00发射升空。作为冷战时期苏联“宇宙”系列卫星家族成员,它延续了该系列涵盖军事侦察、空间环境探测与技术验证的任务传统,在近地轨道开展相关航天实验,是苏联70年代航天活动的重要组成部分,为后续独联体航天技术发展积累了宝贵数据。

Basic Information
目录编号:
10599
目录名称:
COSMOS 985
国际标识:
1978-007A
轨道中心:
EARTH
卫星名称:
COSMOS 985
卫星全名:
--
卫星状态:
在轨 (已飞行17769 天)
发射日期:
1978-01-17 UTC
国别 :
俄罗斯(独联体) (CIS)
星等 :
--
This satellite is enrolled in the Space Conjunction Data Service (SCDS) and the current flight risk assessment level is: No High Risk
Orbit Information
数据来源 国际轨道数据 AOE轨道数据
星历时间 2026-09-11T02:51:37+0800
12小时前
查看轨道信息
2026-09-11T01:00:00+0800
14小时前
查看轨道信息
半长轴 7352.91km 7352.908km
偏心率 0.0051823 0.0051697
轨道倾角 82.944° 82.945°
近地点辐角 315.258° 315.334°
升交点赤经 324.749° 324.806°
平近点角 44.441° 20.350°
近地点 936.668km 936.758km
远地点 1012.878km 1012.784km
周期 104.580分钟 104.580分钟
每日圈数 13.769366 13.76937
Detailed Information
使用方式:
暂无
2D Orbit Map
3D Orbit Map
Orbit Altitude Analysis Chart
Orbit Inclination Analysis Chart
Orbit Comprehensive Analysis Chart
View Comprehensive Chart
Miss Distance Evolution Trend with All Objects
Collision Probability Evolution Trend with All Objects